| time (UTC) | temp F | wind direction | speed knots | gust knots | rain 1hr in | rain 24hr in | rain mn in | humidity % | barometer mb |
| 20260504225049 | 69 | 200 | 1.7 | 8.7 | 0.00 | 0.00 | 0.00 | 33 | 1005.4 |
| 20260504224600 | 69 | 166 | 0.9 | 8.7 | 0.00 | 0.00 | 0.00 | 32 | 1005.3 |
| 20260504224046 | 69 | 186 | 1.7 | 7.0 | 0.00 | 0.00 | 0.00 | 32 | 1005.2 |
| 20260504223546 | 69 | 249 | 2.6 | 7.0 | 0.00 | 0.00 | 0.00 | 32 | 1005.2 |
| 20260504223047 | 70 | 128 | 0.9 | 9.6 | 0.00 | 0.00 | 0.00 | 32 | 1005.2 |
| 20260504222546 | 70 | 222 | 0.9 | 13.9 | 0.00 | 0.00 | 0.00 | 31 | 1005.2 |
| 20260504222045 | 70 | 182 | 1.7 | 13.9 | 0.00 | 0.00 | 0.00 | 31 | 1005.1 |
| 20260504221546 | 70 | 235 | 2.6 | 14.8 | 0.00 | 0.00 | 0.00 | 30 | 1005.1 |
| 20260504221044 | 71 | 233 | 5.2 | 14.8 | 0.00 | 0.00 | 0.00 | 30 | 1005.2 |
| 20260504220544 | 71 | 238 | 4.3 | 13.0 | 0.00 | 0.00 | 0.00 | 30 | 1005.2 |
| 20260504220052 | 71 | 247 | 5.2 | 13.0 | 0.00 | 0.00 | 0.00 | 30 | 1005.2 |
| 20260504215544 | 71 | 249 | 2.6 | 13.0 | 0.00 | 0.00 | 0.00 | 30 | 1005.3 |
| 20260504215045 | 71 | 266 | 4.3 | 10.4 | 0.00 | 0.00 | 0.00 | 30 | 1005.3 |
| 20260504214547 | 71 | 204 | 4.3 | 10.4 | 0.00 | 0.00 | 0.00 | 30 | 1005.2 |
| 20260504214044 | 71 | 236 | 4.3 | 13.0 | 0.00 | 0.00 | 0.00 | 30 | 1005.2 |
| 20260504213544 | 71 | 215 | 4.3 | 13.9 | 0.00 | 0.00 | 0.00 | 29 | 1005.1 |
| 20260504213044 | 72 | 299 | 3.5 | 13.9 | 0.00 | 0.00 | 0.00 | 29 | 1005.1 |
| 20260504212544 | 72 | 234 | 5.2 | 13.9 | 0.00 | 0.00 | 0.00 | 29 | 1005.3 |
| 20260504212044 | 72 | 218 | 3.5 | 16.5 | 0.00 | 0.00 | 0.00 | 29 | 1005.3 |
| 20260504211543 | 73 | 302 | 4.3 | 16.5 | 0.00 | 0.00 | 0.00 | 29 | 1005.2 |
| 20260504211042 | 73 | 205 | 3.5 | 13.9 | 0.00 | 0.00 | 0.00 | 30 | 1005.2 |
| 20260504210543 | 72 | 156 | 3.5 | 13.0 | 0.00 | 0.00 | 0.00 | 29 | 1005.1 |
| 20260504210053 | 72 | 14 | 3.5 | 16.5 | 0.00 | 0.00 | 0.00 | 30 | 1005.2 |
| 20260504205539 | 72 | 172 | 6.1 | 16.5 | 0.00 | 0.00 | 0.00 | 30 | 1005.2 |
| 20260504205038 | 72 | 182 | 4.3 | 13.9 | 0.00 | 0.00 | 0.00 | 30 | 1005.1 |
| 20260504204546 | 71 | 250 | 2.6 | 15.6 | 0.00 | 0.00 | 0.00 | 31 | 1005.1 |
| 20260504204038 | 71 | 259 | 2.6 | 15.6 | 0.00 | 0.00 | 0.00 | 30 | 1005.2 |
| 20260504203538 | 71 | 119 | 3.5 | 13.0 | 0.00 | 0.00 | 0.00 | 30 | 1005.2 |
| 20260504203039 | 71 | 273 | 4.3 | 13.0 | 0.00 | 0.00 | 0.00 | 31 | 1005.2 |
| 20260504202537 | 71 | 317 | 1.7 | 10.4 | 0.00 | 0.00 | 0.00 | 32 | 1005.4 |
| 20260504202034 | 70 | 115 | 1.7 | 10.4 | 0.00 | 0.00 | 0.00 | 32 | 1005.4 |
| 20260504201536 | 71 | 175 | 1.7 | 8.7 | 0.00 | 0.00 | 0.00 | 31 | 1005.3 |
| 20260504201033 | 71 | 179 | 4.3 | 8.7 | 0.00 | 0.00 | 0.00 | 31 | 1005.3 |
| 20260504200535 | 71 | 281 | 2.6 | 12.2 | 0.00 | 0.00 | 0.00 | 32 | 1005.4 |
| 20260504200043 | 71 | 180 | 4.3 | 12.2 | 0.00 | 0.00 | 0.00 | 31 | 1005.4 |
| 20260504195531 | 71 | 167 | 4.3 | 9.6 | 0.00 | 0.00 | 0.00 | 30 | 1005.2 |
| 20260504195032 | 71 | 139 | 2.6 | 10.4 | 0.00 | 0.00 | 0.00 | 31 | 1005.3 |
| 20260504194531 | 71 | 157 | 4.3 | 19.1 | 0.00 | 0.00 | 0.00 | 30 | 1005.3 |
| 20260504194030 | 70 | 229 | 7.8 | 19.1 | 0.00 | 0.00 | 0.00 | 31 | 1005.3 |
| 20260504193530 | 70 | 310 | 3.5 | 15.6 | 0.00 | 0.00 | 0.00 | 32 | 1005.3 |
| 20260504193029 | 70 | 269 | 3.5 | 15.6 | 0.00 | 0.00 | 0.00 | 32 | 1005.5 |
| 20260504192529 | 70 | 221 | 0.9 | 11.3 | 0.00 | 0.00 | 0.00 | 30 | 1005.2 |
| 20260504192030 | 70 | 261 | 4.3 | 11.3 | 0.00 | 0.00 | 0.00 | 30 | 1005.4 |
| 20260504191528 | 71 | 236 | 2.6 | 13.0 | 0.00 | 0.00 | 0.00 | 30 | 1005.4 |
| 20260504191027 | 71 | 355 | 4.3 | 13.0 | 0.00 | 0.00 | 0.00 | 31 | 1005.5 |
| 20260504190527 | 71 | 148 | 4.3 | 14.8 | 0.00 | 0.00 | 0.00 | 31 | 1005.5 |
| 20260504190025 | 71 | 227 | 3.5 | 14.8 | 0.00 | 0.00 | 0.00 | 30 | 1005.6 |
| 20260504185523 | 71 | 262 | 4.3 | 13.0 | 0.00 | 0.00 | 0.00 | 32 | 1005.5 |
| 20260504185023 | 70 | 239 | 2.6 | 13.0 | 0.00 | 0.00 | 0.00 | 31 | 1005.6 |
| 20260504184532 | 71 | 190 | 3.5 | 12.2 | 0.00 | 0.00 | 0.00 | 30 | 1005.9 |
| 20260504184021 | 71 | 195 | 1.7 | 9.6 | 0.00 | 0.00 | 0.00 | 32 | 1005.7 |
| 20260504183520 | 70 | 168 | 1.7 | 9.6 | 0.00 | 0.00 | 0.00 | 30 | 1005.6 |
| 20260504183025 | 70 | 158 | 2.6 | 7.8 | 0.00 | 0.00 | 0.00 | 31 | 1005.7 |
| 20260504182518 | 69 | 178 | 3.5 | 7.8 | 0.00 | 0.00 | 0.00 | 30 | 1005.7 |
| 20260504182021 | 69 | 165 | 2.6 | 13.9 | 0.00 | 0.00 | 0.00 | 30 | 1005.9 |
| 20260504181517 | 69 | 278 | 4.3 | 11.3 | 0.00 | 0.00 | 0.00 | 31 | 1005.6 |
| 20260504181016 | 69 | 232 | 4.3 | 16.5 | 0.00 | 0.00 | 0.00 | 32 | 1005.8 |
| 20260504180516 | 68 | 189 | 4.3 | 12.2 | 0.00 | 0.00 | 0.00 | 31 | 1005.7 |
| 20260504180015 | 68 | 173 | 5.2 | 13.9 | 0.00 | 0.00 | 0.00 | 31 | 1006.0 |
| 20260504175514 | 68 | 182 | 5.2 | 13.9 | 0.00 | 0.00 | 0.00 | 31 | 1005.9 |
| 20260504175013 | 68 | 160 | 1.7 | 13.0 | 0.00 | 0.00 | 0.00 | 32 | 1005.9 |
| 20260504174513 | 68 | 162 | 6.1 | 13.0 | 0.00 | 0.00 | 0.00 | 30 | 1005.9 |
| 20260504174012 | 69 | 240 | 2.6 | 13.0 | 0.00 | 0.00 | 0.00 | 30 | 1006.0 |
| 20260504173514 | 70 | 232 | 5.2 | 15.6 | 0.00 | 0.00 | 0.00 | 29 | 1005.9 |
| 20260504173011 | 70 | 169 | 2.6 | 14.8 | 0.00 | 0.00 | 0.00 | 32 | 1005.9 |
| 20260504172512 | 70 | 154 | 4.3 | 14.8 | 0.00 | 0.00 | 0.00 | 31 | 1005.9 |
| 20260504172011 | 70 | 294 | 1.7 | 9.6 | 0.00 | 0.00 | 0.00 | 31 | 1006.1 |
| 20260504171507 | 69 | 172 | 3.5 | 13.9 | 0.00 | 0.00 | 0.00 | 32 | 1006.1 |
| 20260504171008 | 69 | 265 | 3.5 | 13.9 | 0.00 | 0.00 | 0.00 | 32 | 1006.2 |
| 20260504170505 | 69 | 166 | 5.2 | 13.9 | 0.00 | 0.00 | 0.00 | 32 | 1006.1 |
| 20260504151044 | 65 | 171 | 3.5 | 10.4 | 0.00 | 0.00 | 0.00 | 38 | 1007.2 |
| 20260504150543 | 65 | 235 | 3.5 | 10.4 | 0.00 | 0.00 | 0.00 | 37 | 1007.2 |
| 20260504141031 | 60 | 230 | 1.7 | 13.0 | 0.00 | 0.00 | 0.00 | 43 | 1008.2 |
| 20260504140526 | 60 | 227 | 4.3 | 13.0 | 0.00 | 0.00 | 0.00 | 44 | 1008.4 |
| 20260504130514 | 56 | 201 | 2.6 | 11.3 | 0.00 | 0.00 | 0.00 | 53 | 1008.7 |
| 20260504120124 | 47 | 171 | 1.7 | 2.6 | 0.00 | 0.00 | 0.00 | 68 | 1009.2 |
| 20260504110538 | 39 | 241 | 0.0 | 0.9 | 0.00 | 0.00 | 0.00 | 81 | 1009.5 |
| 20260504100532 | 37 | 241 | 0.0 | 0.9 | 0.00 | 0.00 | 0.00 | 86 | 1009.4 |
| 20260504081527 | 37 | 238 | 0.0 | 0.9 | 0.00 | 0.00 | 0.00 | 87 | 1009.3 |
| 20260504081022 | 37 | 238 | 0.0 | 0.9 | 0.00 | 0.00 | 0.00 | 87 | 1009.3 |
| 20260504080526 | 37 | 238 | 0.0 | 0.9 | 0.00 | 0.00 | 0.00 | 87 | 1009.3 |
| 20260504050503 | 32 | 238 | 0.0 | 0.0 | 0.00 | 0.00 | 0.00 | 84 | 1009.3 |
| 20260504050002 | 32 | 238 | 0.0 | 0.0 | 0.00 | 0.00 | 0.00 | 84 | 1009.4 |
| 20260504045500 | 32 | 238 | 0.0 | 0.0 | 0.00 | 0.00 | 0.00 | 83 | 1009.4 |
| 20260504045003 | 33 | 238 | 0.0 | 0.9 | 0.00 | 0.00 | 0.00 | 83 | 1009.4 |
| 20260504044600 | 33 | 238 | 0.0 | 0.9 | 0.00 | 0.00 | 0.00 | 83 | 1009.3 |
| 20260504044100 | 33 | 238 | 0.0 | 0.0 | 0.00 | 0.00 | 0.00 | 82 | 1009.3 |
| 20260504043559 | 33 | 238 | 0.0 | 0.9 | 0.00 | 0.00 | 0.00 | 82 | 1009.3 |
| 20260504043114 | 33 | 238 | 0.0 | 0.9 | 0.00 | 0.00 | 0.00 | 81 | 1009.4 |
| 20260504042558 | 33 | 238 | 0.0 | 0.9 | 0.00 | 0.00 | 0.00 | 81 | 1009.4 |
| 20260504042059 | 33 | 238 | 0.0 | 0.9 | 0.00 | 0.00 | 0.00 | 80 | 1009.3 |
| 20260504041555 | 34 | 234 | 0.0 | 0.0 | 0.00 | 0.00 | 0.00 | 80 | 1009.3 |
| 20260504041056 | 34 | 238 | 0.0 | 0.0 | 0.00 | 0.00 | 0.00 | 80 | 1009.3 |
| 20260504040555 | 34 | 238 | 0.0 | 0.0 | 0.00 | 0.00 | 0.00 | 79 | 1009.2 |
| 20260504040052 | 34 | 238 | 0.0 | 0.0 | 0.00 | 0.00 | 0.00 | 78 | 1009.1 |
| 20260504035553 | 34 | 238 | 0.0 | 0.0 | 0.00 | 0.01 | 0.00 | 78 | 1009.2 |
| 20260504035050 | 34 | 238 | 0.0 | 0.0 | 0.00 | 0.01 | 0.00 | 78 | 1009.1 |
| 20260504034553 | 35 | 238 | 0.0 | 0.0 | 0.00 | 0.01 | 0.00 | 78 | 1009.1 |
| 20260504034051 | 35 | 238 | 0.0 | 0.0 | 0.00 | 0.01 | 0.00 | 78 | 1009.0 |
| 20260504033548 | 35 | 238 | 0.0 | 0.9 | 0.00 | 0.01 | 0.00 | 78 | 1009.1 |
| 20260504033050 | 35 | 238 | 0.0 | 0.9 | 0.00 | 0.01 | 0.00 | 77 | 1009.1 |
| 20260504032547 | 35 | 238 | 0.0 | 0.0 | 0.00 | 0.01 | 0.00 | 76 | 1009.0 |
| 20260504032047 | 35 | 238 | 0.0 | 0.9 | 0.00 | 0.01 | 0.00 | 76 | 1009.0 |
| 20260504031552 | 36 | 238 | 0.0 | 0.9 | 0.00 | 0.01 | 0.00 | 75 | 1008.9 |
| 20260504031047 | 36 | 238 | 0.0 | 0.0 | 0.00 | 0.01 | 0.00 | 75 | 1009.0 |
| 20260504030544 | 36 | 238 | 0.0 | 0.0 | 0.00 | 0.01 | 0.00 | 74 | 1009.0 |
| 20260504030101 | 36 | 238 | 0.0 | 0.0 | 0.00 | 0.01 | 0.00 | 74 | 1009.0 |
| 20260504025543 | 36 | 238 | 0.0 | 0.9 | 0.00 | 0.01 | 0.00 | 74 | 1009.0 |
| 20260504025044 | 37 | 238 | 0.0 | 0.9 | 0.00 | 0.01 | 0.00 | 73 | 1009.0 |
| 20260504024542 | 37 | 238 | 0.0 | 0.9 | 0.00 | 0.01 | 0.00 | 72 | 1009.0 |
| 20260504024041 | 37 | 238 | 0.0 | 0.0 | 0.00 | 0.01 | 0.00 | 71 | 1008.9 |
| 20260504023541 | 37 | 238 | 0.0 | 0.0 | 0.00 | 0.01 | 0.00 | 71 | 1008.9 |
| 20260504023041 | 37 | 238 | 0.0 | 0.0 | 0.00 | 0.01 | 0.00 | 70 | 1008.9 |
| 20260504022542 | 37 | 238 | 0.0 | 0.0 | 0.00 | 0.01 | 0.00 | 70 | 1008.9 |
| 20260504022040 | 38 | 238 | 0.0 | 0.0 | 0.00 | 0.01 | 0.00 | 70 | 1009.0 |
| 20260504021545 | 38 | 238 | 0.0 | 0.9 | 0.00 | 0.01 | 0.00 | 69 | 1008.9 |
| 20260504021037 | 38 | 238 | 0.0 | 1.7 | 0.00 | 0.01 | 0.00 | 69 | 1009.0 |
| 20260504020540 | 38 | 238 | 0.0 | 1.7 | 0.00 | 0.01 | 0.00 | 68 | 1008.9 |
| 20260504020038 | 38 | 238 | 0.0 | 1.7 | 0.00 | 0.01 | 0.00 | 68 | 1008.8 |
| 20260504015536 | 39 | 238 | 0.0 | 1.7 | 0.00 | 0.01 | 0.00 | 68 | 1008.7 |
| 20260504015036 | 39 | 238 | 0.0 | 1.7 | 0.00 | 0.01 | 0.00 | 67 | 1008.7 |
| 20260504014536 | 39 | 238 | 0.0 | 0.9 | 0.00 | 0.01 | 0.00 | 66 | 1008.7 |
| 20260504014035 | 39 | 238 | 0.0 | 0.9 | 0.00 | 0.01 | 0.00 | 66 | 1008.7 |
| 20260504013536 | 40 | 238 | 0.0 | 0.9 | 0.00 | 0.01 | 0.00 | 65 | 1008.6 |
| 20260504013037 | 40 | 238 | 0.0 | 0.0 | 0.00 | 0.01 | 0.00 | 65 | 1008.6 |
| 20260504012535 | 40 | 238 | 0.0 | 0.9 | 0.00 | 0.01 | 0.00 | 64 | 1008.6 |
| 20260504012035 | 41 | 238 | 0.0 | 0.9 | 0.00 | 0.01 | 0.00 | 63 | 1008.6 |
| 20260504011535 | 41 | 238 | 0.0 | 0.9 | 0.00 | 0.01 | 0.00 | 63 | 1008.5 |
| 20260504011037 | 41 | 238 | 0.0 | 0.9 | 0.00 | 0.01 | 0.00 | 62 | 1008.4 |
| 20260504010534 | 41 | 238 | 0.0 | 0.9 | 0.00 | 0.01 | 0.00 | 62 | 1008.4 |
| 20260504010034 | 42 | 238 | 0.0 | 0.9 | 0.00 | 0.01 | 0.00 | 61 | 1008.4 |
| 20260504005534 | 42 | 238 | 0.0 | 0.9 | 0.00 | 0.01 | 0.00 | 60 | 1008.3 |
| 20260504005034 | 42 | 238 | 0.0 | 0.9 | 0.00 | 0.01 | 0.00 | 60 | 1008.3 |
| 20260504004542 | 43 | 238 | 0.0 | 0.9 | 0.00 | 0.01 | 0.00 | 59 | 1008.2 |
| 20260504004035 | 43 | 238 | 0.0 | 0.9 | 0.00 | 0.01 | 0.00 | 58 | 1008.1 |
| 20260504003533 | 44 | 238 | 0.0 | 0.9 | 0.00 | 0.01 | 0.00 | 56 | 1008.0 |
| 20260504003033 | 44 | 238 | 0.0 | 0.9 | 0.00 | 0.01 | 0.00 | 55 | 1008.0 |
| 20260504002533 | 45 | 238 | 0.0 | 0.9 | 0.00 | 0.01 | 0.00 | 54 | 1008.0 |
| 20260504002034 | 45 | 238 | 0.0 | 0.9 | 0.00 | 0.01 | 0.00 | 53 | 1008.0 |
| 20260504001538 | 46 | 238 | 0.0 | 0.0 | 0.00 | 0.01 | 0.00 | 52 | 1007.9 |
| 20260504001033 | 46 | 238 | 0.0 | 0.0 | 0.00 | 0.01 | 0.00 | 51 | 1007.9 |
| 20260504000533 | 47 | 238 | 0.0 | 0.0 | 0.00 | 0.01 | 0.00 | 51 | 1007.7 |
| 20260504000033 | 47 | 238 | 0.0 | 2.6 | 0.00 | 0.01 | 0.00 | 51 | 1007.7 |
| 20260503235532 | 47 | 238 | 0.9 | 3.5 | 0.00 | 0.03 | 0.00 | 49 | 1007.6 |
| 20260503235033 | 47 | 173 | 0.0 | 3.5 | 0.00 | 0.03 | 0.00 | 48 | 1007.6 |
| 20260503234535 | 48 | 246 | 0.0 | 7.8 | 0.00 | 0.03 | 0.00 | 47 | 1007.6 |
| 20260503234032 | 48 | 238 | 1.7 | 7.8 | 0.00 | 0.03 | 0.00 | 46 | 1007.5 |
| 20260503233531 | 48 | 198 | 1.7 | 7.8 | 0.00 | 0.03 | 0.00 | 46 | 1007.5 |
| 20260503233032 | 48 | 215 | 3.5 | 7.8 | 0.00 | 0.03 | 0.00 | 45 | 1007.4 |
| 20260503232537 | 48 | 207 | 2.6 | 9.6 | 0.00 | 0.03 | 0.00 | 45 | 1007.3 |
| 20260503232031 | 49 | 289 | 5.2 | 9.6 | 0.00 | 0.03 | 0.00 | 45 | 1007.3 |
| 20260503231531 | 49 | 311 | 2.6 | 9.6 | 0.00 | 0.03 | 0.00 | 45 | 1007.2 |
| 20260503231033 | 49 | 287 | 5.2 | 9.6 | 0.00 | 0.03 | 0.00 | 44 | 1007.2 |
| 20260503230531 | 49 | 254 | 3.5 | 11.3 | 0.00 | 0.03 | 0.00 | 44 | 1007.1 |
| 20260503230050 | 49 | 312 | 3.5 | 11.3 | 0.00 | 0.03 | 0.00 | 44 | 1007.0 |
| 20260503225533 | 49 | 262 | 4.3 | 10.4 | 0.00 | 0.06 | 0.00 | 43 | 1007.0 |